TimeCDT,TemperatureF,Dew PointF,Humidity,Sea Level PressureIn,VisibilityMPH,Wind Direction,Wind SpeedMPH,Gust SpeedMPH,PrecipitationIn,Events,Conditions,WindDirDegrees,DateUTC
12:15 AM,59.0,46.4,63,29.87,10.0,SSW,3.5,-,N/A,,Clear,210,2013-10-01 05:15:00
12:35 AM,59.0,46.4,63,29.87,10.0,South,5.8,-,N/A,,Clear,190,2013-10-01 05:35:00
12:55 AM,59.0,48.2,67,29.87,10.0,SSW,6.9,-,N/A,,Clear,200,2013-10-01 05:55:00
1:15 AM,59.0,48.2,67,29.88,10.0,SSW,6.9,-,N/A,,Clear,200,2013-10-01 06:15:00
1:35 AM,59.0,48.2,67,29.88,10.0,SSW,3.5,-,N/A,,Clear,210,2013-10-01 06:35:00
1:55 AM,57.2,50.0,77,29.88,10.0,SSW,4.6,-,N/A,,Clear,210,2013-10-01 06:55:00
2:15 AM,59.0,50.0,72,29.88,10.0,South,9.2,-,N/A,,Clear,180,2013-10-01 07:15:00
2:35 AM,59.0,51.8,77,29.88,10.0,South,6.9,-,N/A,,Clear,190,2013-10-01 07:35:00
2:55 AM,59.0,51.8,77,29.88,10.0,SSW,9.2,-,N/A,,Clear,200,2013-10-01 07:55:00
3:15 AM,59.0,53.6,82,29.88,10.0,SSW,9.2,-,N/A,,Clear,200,2013-10-01 08:15:00
3:35 AM,59.0,53.6,82,29.87,10.0,SSW,8.1,-,N/A,,Clear,200,2013-10-01 08:35:00
3:55 AM,59.0,53.6,82,29.87,10.0,SSW,5.8,-,N/A,,Clear,200,2013-10-01 08:55:00
4:15 AM,59.0,53.6,82,29.87,10.0,SSW,5.8,-,N/A,,Clear,200,2013-10-01 09:15:00
4:35 AM,59.0,53.6,82,29.87,10.0,South,6.9,-,N/A,,Clear,190,2013-10-01 09:35:00
4:55 AM,59.0,53.6,82,29.87,10.0,South,5.8,-,N/A,,Clear,190,2013-10-01 09:55:00
5:15 AM,59.0,53.6,82,29.88,10.0,South,8.1,-,N/A,,Clear,190,2013-10-01 10:15:00
5:35 AM,59.0,53.6,82,29.88,10.0,South,8.1,-,N/A,,Clear,190,2013-10-01 10:35:00
5:50 AM,59.0,55.4,88,29.88,10.0,South,9.2,-,N/A,,Clear,190,2013-10-01 10:50:00
7:45 AM,60.8,57.2,88,29.90,5.0,SSW,11.5,-,N/A,,Clear,200,2013-10-01 12:45:00
7:50 AM,60.8,57.2,88,29.90,5.0,SSW,11.5,-,N/A,,Mostly Cloudy,200,2013-10-01 12:50:00
8:45 AM,64.4,60.8,88,29.90,10.0,SSW,13.8,20.7,N/A,,Mostly Cloudy,200,2013-10-01 13:45:00
9:45 AM,66.2,60.8,83,29.90,10.0,SSW,15.0,23.0,N/A,,Mostly Cloudy,210,2013-10-01 14:45:00
10:28 AM,69.8,60.8,73,29.90,10.0,SSW,12.7,-,N/A,,Scattered Clouds,200,2013-10-01 15:28:00
10:45 AM,71.6,59.0,64,29.90,10.0,SSW,17.3,23.0,N/A,,Partly Cloudy,210,2013-10-01 15:45:00
11:45 AM,75.2,59.0,57,29.88,10.0,SW,19.6,-,N/A,,Partly Cloudy,220,2013-10-01 16:45:00
12:45 PM,78.8,59.0,51,29.87,10.0,SSW,20.7,26.5,N/A,,Partly Cloudy,200,2013-10-01 17:45:00
2:45 PM,82.4,55.4,39,29.86,10.0,SW,24.2,-,N/A,,Partly Cloudy,230,2013-10-01 19:45:00
3:45 PM,82.4,55.4,39,29.86,10.0,WSW,16.1,25.3,N/A,,Clear,240,2013-10-01 20:45:00
4:45 PM,82.4,55.4,39,29.87,10.0,WSW,15.0,20.7,N/A,,Clear,240,2013-10-01 21:45:00
5:45 PM,80.6,57.2,45,29.88,10.0,WSW,13.8,19.6,N/A,,Clear,240,2013-10-01 22:45:00
6:45 PM,77.0,57.2,50,29.89,10.0,WSW,5.8,-,N/A,,Clear,240,2013-10-01 23:45:00
7:45 PM,71.6,57.2,60,29.91,10.0,West,4.6,-,N/A,,Clear,280,2013-10-02 00:45:00
8:45 PM,69.8,59.0,68,29.92,10.0,Calm,Calm,-,N/A,,Clear,0,2013-10-02 01:45:00
9:15 PM,68.0,59.0,73,29.93,10.0,Calm,Calm,-,N/A,,Clear,0,2013-10-02 02:15:00
9:35 PM,64.4,59.0,83,29.93,10.0,Calm,Calm,-,N/A,,Clear,0,2013-10-02 02:35:00
9:55 PM,64.4,57.2,77,29.93,10.0,SW,3.5,-,N/A,,Clear,220,2013-10-02 02:55:00
10:15 PM,62.6,55.4,77,29.94,10.0,Calm,Calm,-,N/A,,Clear,0,2013-10-02 03:15:00
10:35 PM,62.6,57.2,82,29.94,10.0,Calm,Calm,-,N/A,,Clear,0,2013-10-02 03:35:00
10:55 PM,62.6,59.0,88,29.95,10.0,Calm,Calm,-,N/A,,Clear,0,2013-10-02 03:55:00
11:15 PM,60.8,55.4,82,29.95,10.0,Calm,Calm,-,N/A,,Clear,0,2013-10-02 04:15:00
11:35 PM,59.0,55.4,88,29.96,10.0,Calm,Calm,-,N/A,,Clear,0,2013-10-02 04:35:00
11:55 PM,59.0,55.4,88,29.96,1.0,Calm,Calm,-,N/A,,Mist,0,2013-10-02 04:55:00